TimeCST,TemperatureF,Dew PointF,Humidity,Sea Level PressureIn,VisibilityMPH,Wind Direction,Wind SpeedMPH,Gust SpeedMPH,PrecipitationIn,Events,Conditions,WindDirDegrees,DateUTC
12:53 AM,30.9,25.0,79,30.22,10.0,NW,9.2,-,N/A,,Clear,310,2012-12-29 06:53:00
1:53 AM,30.0,24.1,79,30.24,10.0,WNW,6.9,-,N/A,,Clear,300,2012-12-29 07:53:00
2:53 AM,30.0,23.0,75,30.25,10.0,WNW,6.9,-,N/A,,Clear,300,2012-12-29 08:53:00
3:53 AM,28.9,21.0,72,30.28,10.0,WNW,4.6,-,N/A,,Clear,290,2012-12-29 09:53:00
4:53 AM,28.9,21.9,75,30.31,10.0,West,8.1,-,N/A,,Clear,280,2012-12-29 10:53:00
5:53 AM,28.0,19.9,72,30.32,10.0,NW,9.2,-,N/A,,Clear,310,2012-12-29 11:53:00
6:53 AM,27.0,19.0,72,30.35,10.0,NW,8.1,-,N/A,,Clear,310,2012-12-29 12:53:00
7:53 AM,27.0,18.0,69,30.38,10.0,NNW,6.9,-,N/A,,Clear,330,2012-12-29 13:53:00
8:53 AM,30.9,17.1,57,30.40,10.0,NNW,9.2,-,N/A,,Clear,340,2012-12-29 14:53:00
9:53 AM,35.1,17.1,48,30.43,10.0,North,12.7,-,N/A,,Clear,350,2012-12-29 15:53:00
10:53 AM,37.0,17.1,44,30.44,10.0,NW,10.4,-,N/A,,Clear,320,2012-12-29 16:53:00
11:53 AM,39.9,18.0,41,30.42,10.0,North,10.4,-,N/A,,Clear,350,2012-12-29 17:53:00
12:53 PM,43.0,19.0,38,30.41,10.0,NNW,8.1,-,N/A,,Clear,330,2012-12-29 18:53:00
1:53 PM,44.1,18.0,35,30.38,10.0,NNW,12.7,21.9,N/A,,Clear,340,2012-12-29 19:53:00
2:53 PM,45.0,19.0,36,30.39,10.0,WNW,9.2,-,N/A,,Clear,300,2012-12-29 20:53:00
3:53 PM,45.0,19.0,36,30.41,10.0,NNW,9.2,-,N/A,,Clear,340,2012-12-29 21:53:00
5:53 PM,39.9,24.1,53,30.43,10.0,Calm,Calm,-,N/A,,Clear,0,2012-12-29 23:53:00
6:53 PM,37.0,21.9,54,30.45,10.0,Calm,Calm,-,N/A,,Clear,0,2012-12-30 00:53:00
7:53 PM,35.1,23.0,61,30.46,10.0,Calm,Calm,-,N/A,,Clear,0,2012-12-30 01:53:00
8:53 PM,32.0,23.0,69,30.46,10.0,Calm,Calm,-,N/A,,Clear,0,2012-12-30 02:53:00
9:53 PM,28.9,23.0,78,30.47,10.0,Calm,Calm,-,N/A,,Clear,0,2012-12-30 03:53:00
10:53 PM,30.0,25.0,82,30.46,10.0,Calm,Calm,-,N/A,,Clear,0,2012-12-30 04:53:00
11:53 PM,30.0,23.0,75,30.48,10.0,Calm,Calm,-,N/A,,Clear,0,2012-12-30 05:53:00